Hourly Weather Roundup
Issued by NWS Central Illinois

Home | Current Version | Previous Version | Text Only | Print | Product List | Glossary On
Versions: 1 2 3 4 5 6 7 8 9 10 11 12 13 14 15 16 17 18 19 20 21 22 23 24 25 26 27 28 29 30 31 32 33 34 35 36 37 38 39 40 41 42 43 44 45 46 47 48 49 50
000
NZUS43 KILX 290110
HWRILX

Area Weather Roundup
National Weather Service Lincoln IL
800 PM CDT FRI APR 28 2017

NOTE:  "FAIR" indicates few or no clouds below 12,000 feet, with
       no sigificant weather and/or obstructions to visibility.


CITY           SKY/WX    TMP DP  RH WIND       PRES   REMARKS
Bloomington    CLOUDY    55  53  93 E7        29.87R
Champaign      CLOUDY    55  53  93 E14       29.84F
Danville       LGT RAIN  54  54  98 E8        29.83F
Decatur        CLOUDY    56  56 100 SE7       29.84R
Effingham      CLOUDY    57  57 100 E8        29.84R
Flora          CLOUDY    58  57  96 NE9       29.82S
Galesburg      MOCLDY    54  53  97 N6        29.86R
Jacksonville   CLOUDY    56  55  97 N3        29.85R
Lacon          CLOUDY    57  55  91 CALM      29.87R
Lawrenceville  CLOUDY    59  58  96 N9        29.84R
Litchfield     CLOUDY    56  55  97 E8        29.83R
$$


CITY           SKY/WX    TMP DP  RH WIND       PRES   REMARKS
Lincoln        CLOUDY    57  56  97 CALM      29.86R
Macomb         CLOUDY    58  55  91 E3        29.88R
Mattoon        CLOUDY    55  54  96 E10       29.82F
Mt Carmel AP   CLOUDY    60  58  94 NE6       29.82R
Olney-Noble AP CLOUDY    57  57 100 CALM      29.82F FOG
Paris AP       CLOUDY    55  55 100 NE8       29.85F THUNDER
Peoria         CLOUDY    58  55  90 CALM      29.86R
Pontiac        CLOUDY    58  56  95 E7        29.88R
Rantoul        CLOUDY    56  55  95 SE12      29.84S FOG
Robinson       LGT RAIN  56  56  98 E7        29.84S
Springfield    CLOUDY    58  54  86 N6        29.85R
Taylorville    CLOUDY    56  55  96 SE6       29.85R
$$

...REGIONAL REPORTS...


CITY           SKY/WX    TMP DP  RH WIND       PRES   REMARKS
Chicago O`Hare CLOUDY    52  42  69 NE7       29.91R
Kankakee       CLOUDY    57  51  79 CALM      29.89R
Moline         CLOUDY    50  47  89 NE7       29.88R
Mount Sterling CLOUDY    55  55  97 CALM      29.85R FOG
Mount Vernon   CLOUDY    59  58  96 N6        29.82R FOG
Pittsfield     CLOUDY    56  56  99 CALM      29.86R FOG
Quincy         CLOUDY    56  55  97 E5        29.84R FOG
Rockford       CLOUDY    51  48  89 N14       29.94R
$$


CITY           SKY/WX    TMP DP  RH WIND       PRES   REMARKS
Burlington     CLOUDY    52  51  97 N8        29.85R FOG
Cedar Rapids   LGT RAIN  43  43 100 N13       29.91R FOG
Des Moines     CLOUDY    45  39  79 NE12      29.93R
Kirksville     CLOUDY    46  31  55 N13       29.85R HAZE
Ottumwa        CLOUDY    44  43  96 NE13      29.89R FOG
St Louis       CLOUDY    60  56  86 SE6       29.84R
$$


CITY           SKY/WX    TMP DP  RH WIND       PRES   REMARKS
Terre Haute    LGT RAIN  57  54  89 E9        29.83F
Evansville     TSTM      73  68  84 S5        29.81F
Indianapolis   CLOUDY    56  54  93 NE8       29.86R
Lafayette      LGT RAIN  54  54 100 E5        29.88S FOG
Madison        LGT RAIN  44  41  89 N6        29.97R
Milwaukee      LGT RAIN  44  40  85 N6        29.93R
$$






USA.gov is the U.S. government's official web portal to all federal, state and local government web resources and services.